Rhinelander, WI

3:45 PM CDT on June 25, 2017 (GMT -0500)
Rhinelander-Oneida County

Weather History for KRHI - April, 2013

Change the Weather History Date:

Thursday, April 11, 2013

  Actual Average Record
Temperature  
Mean Temperature 30 °F 40 °F  
Max Temperature 34 °F 51 °F 80 °F (1977)
Min Temperature 26 °F 28 °F 6 °F (1952)
Degree Days  
Heating Degree Days 35 25  
Month to date heating degree days 366 305  
Since 1 July heating degree days 8095 8100  
Cooling Degree Days 0 0  
Month to date cooling degree days 0 0  
Year to date cooling degree days 0 0  
Moisture  
Dew Point 21 °F    
Average Humidity 68    
Maximum Humidity 85    
Minimum Humidity 51    
Precipitation  
Precipitation 0.31 in 0.09 in 1.09 in (2002)
Month to date precipitation 1.03 0.86  
Year to date precipitation 5.84 4.47  
Snow  
Snow 1.60 in - 7.50 in (2008)
Month to date snowfall 3.0  
Since 1 July snowfall 71.8  
Snow Depth 13.00 in    
Sea Level Pressure  
Sea Level Pressure 29.81 in    
Wind  
Wind Speed 17 mph (ENE)    
Max Wind Speed 29 mph    
Max Gust Speed 38 mph    
Visibility 4 miles    
Events Rain , Snow    
T = Trace of Precipitation, MM = Missing Value Source: NWS Daily Summary

Daily Weather History Graph

Daily Weather History Graph

Search for Another Location

Airport or City:

Trip Planner

Search our weather history database for the weather conditions in past years. The results will help you decide how hot, cold, wet, or windy it might be!

Date:

Astronomy

Apr. 11, 2013 Rise Set
Actual Time 6:18 AM CDT 7:39 PM CDT
Civil Twilight 5:48 AM CDT 8:10 PM CDT
Nautical Twilight 5:11 AM CDT 8:47 PM CDT
Astronomical Twilight 4:31 AM CDT 9:27 PM CDT
Moon 6:46 AM CDT (4/11) 9:19 PM CDT (4/11)
Length of Visible Light 14h 22m
Length of Day
13h 20m
New Moon, 2% of the Moon is Illuminated
Apr 11
New Moon
Apr 18
First Quarter
Apr 25
Full
May 2
Last Quarter
May 9
New

Hourly Weather History & Observations

Time (CDT) Temp. Windchill Dew Point Humidity Pressure Visibility Wind Dir Wind Speed Gust Speed Precip Events Conditions
12:53 AM 30.9 °F 21.2 °F 15.1 °F 52% 30.04 in 10.0 mi ENE 12.7 mph - N/A   Clear
1:53 AM 30.9 °F 21.2 °F 16.0 °F 54% 30.04 in 10.0 mi ENE 12.7 mph 21.9 mph N/A   Clear
2:53 AM 30.9 °F 21.7 °F 18.0 °F 59% 29.99 in 10.0 mi ENE 11.5 mph 21.9 mph N/A   Clear
3:53 AM 30.9 °F 22.2 °F 18.0 °F 59% 30.01 in 10.0 mi ENE 10.4 mph 18.4 mph N/A   Clear
4:53 AM 30.9 °F 20.2 °F 19.0 °F 61% 30.00 in 10.0 mi ENE 15.0 mph 18.4 mph N/A   Overcast
5:53 AM 30.9 °F 19.4 °F 19.9 °F 64% 29.98 in 10.0 mi ENE 17.3 mph 25.3 mph N/A   Overcast
7:53 AM 30.9 °F 17.8 °F 19.9 °F 64% 29.90 in 10.0 mi East 23.0 mph 34.5 mph N/A   Overcast
8:53 AM 30.9 °F 18.7 °F 19.9 °F 64% 29.91 in 10.0 mi East 19.6 mph 29.9 mph N/A   Overcast
9:53 AM 32.0 °F 20.5 °F 19.0 °F 59% 29.88 in 10.0 mi East 18.4 mph 27.6 mph 0.00 in   Overcast
10:53 AM 32.0 °F 21.6 °F 19.9 °F 61% 29.92 in 10.0 mi ENE 15.0 mph 23.0 mph 0.00 in   Overcast
11:53 AM 33.1 °F 21.9 °F 19.9 °F 59% 29.93 in 8.0 mi East 18.4 mph 29.9 mph 0.00 in Snow Light Snow
12:53 PM 33.1 °F 21.2 °F 19.0 °F 56% 29.88 in 10.0 mi ENE 20.7 mph 32.2 mph 0.00 in   Overcast
1:53 PM 34.0 °F 22.4 °F 18.0 °F 52% 29.86 in 10.0 mi East 20.7 mph 33.4 mph 0.00 in Rain Light Rain
2:53 PM 33.1 °F 21.9 °F 19.9 °F 59% 29.86 in 4.0 mi ENE 18.4 mph 38.0 mph 0.00 in Snow Light Snow
3:53 PM 32.0 °F 19.5 °F 17.1 °F 54% 29.85 in 10.0 mi East 21.9 mph 26.5 mph 0.00 in   Overcast
4:21 PM 30.2 °F 18.1 °F 19.4 °F 64% 29.78 in 2.0 mi East 18.4 mph 27.6 mph 0.01 in Snow Light Snow
4:29 PM 30.2 °F 18.1 °F 21.2 °F 69% 29.77 in 1.8 mi ENE 18.4 mph 26.5 mph 0.01 in Snow Light Snow
4:35 PM 30.2 °F 17.8 °F 19.4 °F 64% 29.77 in 3.0 mi East 19.6 mph 28.8 mph 0.01 in   Overcast
4:53 PM 28.9 °F 15.4 °F 21.0 °F 72% 29.85 in 2.0 mi ENE 21.9 mph 33.4 mph 0.01 in Snow Light Snow
4:58 PM 28.4 °F 14.4 °F 21.2 °F 74% 29.79 in 0.8 mi ENE 23.0 mph 33.4 mph 0.01 in Snow Light Snow
5:20 PM 28.4 °F 16.6 °F 23.0 °F 80% 29.78 in 1.0 mi ENE 16.1 mph 27.6 mph 0.02 in Snow Light Snow
5:53 PM 28.0 °F 16.1 °F 23.0 °F 81% 29.86 in 1.5 mi ENE 16.1 mph 25.3 mph 0.06 in   Overcast
6:05 PM 28.4 °F 17.0 °F 23.0 °F 80% 29.80 in 1.2 mi ENE 15.0 mph 25.3 mph 0.00 in Rain Light Freezing Rain
6:14 PM 28.4 °F 15.8 °F 24.8 °F 86% 29.80 in 1.5 mi East 18.4 mph 25.3 mph 0.00 in Rain Light Freezing Rain
6:31 PM 28.4 °F 18.0 °F 24.8 °F 86% 29.80 in 1.8 mi ENE 12.7 mph 25.3 mph 0.01 in Snow Light Snow
6:49 PM 28.4 °F 17.5 °F 24.8 °F 86% 29.80 in 1.2 mi ENE 13.8 mph 28.8 mph 0.01 in Snow Light Snow
6:53 PM 28.0 °F 16.1 °F 24.1 °F 85% 29.86 in 1.0 mi East 16.1 mph 28.8 mph 0.01 in Snow Light Snow
7:11 PM 28.4 °F 14.1 °F 24.8 °F 86% 29.76 in 0.8 mi ENE 24.2 mph 31.1 mph 0.01 in Snow Light Snow
7:14 PM 26.6 °F 13.1 °F 23.0 °F 86% 29.76 in 1.0 mi ENE 19.6 mph 31.1 mph 0.01 in Snow Light Snow
7:24 PM 26.6 °F 13.1 °F 24.8 °F 93% 29.74 in 1.0 mi ENE 19.6 mph 32.2 mph 0.01 in Snow Light Snow
7:36 PM 28.4 °F 14.7 °F 23.0 °F 80% 29.73 in 2.0 mi ENE 21.9 mph 31.1 mph 0.01 in Snow Light Snow
7:43 PM 26.6 °F 13.4 °F 23.0 °F 86% 29.73 in 1.8 mi ENE 18.4 mph 29.9 mph 0.02 in Snow Light Snow
7:51 PM 26.6 °F 13.1 °F 23.0 °F 86% 29.72 in 2.0 mi East 19.6 mph 33.4 mph 0.02 in Snow Light Snow
7:52 PM 27.0 °F 14.7 °F 23.0 °F 85% 29.78 in 2.0 mi ENE 16.1 mph 33.4 mph 0.02 in Snow Light Snow
8:00 PM 26.6 °F 13.4 °F 23.0 °F 86% 29.72 in 3.0 mi ENE 18.4 mph 34.5 mph 0.00 in Snow Light Snow
8:08 PM 26.6 °F 13.1 °F 23.0 °F 86% 29.72 in 3.0 mi ENE 19.6 mph 34.5 mph 0.00 in Snow Light Snow
8:53 PM 27.0 °F 13.5 °F 21.0 °F 78% 29.78 in 10.0 mi East 19.6 mph 33.4 mph 0.00 in   Overcast
9:06 PM 26.6 °F 11.4 °F 21.2 °F 80% 29.72 in 4.0 mi ENE 25.3 mph 32.2 mph 0.00 in Snow Light Snow
9:16 PM 26.6 °F 13.4 °F 21.2 °F 80% 29.72 in 1.8 mi ENE 18.4 mph 29.9 mph 0.00 in Snow Light Snow
9:34 PM 26.6 °F 14.3 °F 23.0 °F 86% 29.73 in 0.8 mi ENE 16.1 mph 26.5 mph 0.01 in Snow Light Snow
9:53 PM 26.1 °F 14.5 °F 23.0 °F 88% 29.78 in 1.0 mi ENE 13.8 mph 21.9 mph 0.02 in Snow Light Snow
10:08 PM 26.6 °F 15.7 °F 23.0 °F 86% 29.70 in 0.8 mi ENE 12.7 mph 23.0 mph 0.01 in Snow Light Snow
10:23 PM 26.6 °F 16.2 °F 23.0 °F 86% 29.69 in 0.8 mi ENE 11.5 mph 23.0 mph 0.02 in Snow Light Snow
10:47 PM 26.6 °F 15.7 °F 23.0 °F 86% 29.71 in 1.2 mi East 12.7 mph - 0.03 in Snow Light Snow
10:53 PM 27.0 °F 16.7 °F 23.0 °F 85% 29.77 in 2.0 mi East 11.5 mph - 0.03 in Snow Light Snow
11:03 PM 26.6 °F 14.7 °F 21.2 °F 80% 29.71 in 2.5 mi East 15.0 mph 19.6 mph 0.00 in Snow Light Snow
11:11 PM 26.6 °F 15.2 °F 21.2 °F 80% 29.72 in 3.0 mi East 13.8 mph 19.6 mph 0.00 in Snow Light Snow
11:30 PM 26.6 °F 14.7 °F 21.2 °F 80% 29.71 in 4.0 mi East 15.0 mph 20.7 mph 0.00 in Snow Light Snow
11:53 PM 27.0 °F 15.2 °F 21.9 °F 81% 29.77 in 3.0 mi East 15.0 mph 21.9 mph 0.00 in Snow Light Snow